Regional Weather Roundup
Issued by NWS

Home | Current Version | Previous Version | Graphics & Text | Print | Product List | Glossary On
Versions: 1 2 3 4 5 6 7 8 9 10 11 12 13 14 15 16 17 18 19 20 21 22 23 24 25 26 27 28 29 30 31 32 33 34 35 36 37 38 39 40 41 42 43 44 45 46 47 48 49 50
685
ASUS45 KSLC 041910
RWRUT

UTAH REGIONAL WEATHER ROUNDUP
NATIONAL WEATHER SERVICE SALT LAKE CITY UT
1200 PM MST SUN DEC 04 2016

UTZ001>011-023>025-042000-

NORTHERN UTAH

CITY           SKY/WX    TMP DP  RH WIND       PRES   REMARKS
BRIGHAM CITY     N/A     37  20  52 CALM      30.09F
HILL AFB       PTSUNNY   33  21  62 SE7       30.08F WCI  26
LOGAN          CLOUDY   N/A N/A N/A N6        30.06F
OGDEN          PTSUNNY   36  21  54 SE9       30.08F WCI  29
SALT LAKE CITY PTSUNNY   37  20  50 SE12      30.09F WCI  29
TOOELE VALLEY  CLOUDY    36  25  64 CALM      30.08F
WENDOVER       PTSUNNY   32  18  55 CALM      30.08F
HEBER CITY     PTSUNNY   25  19  80 CALM      30.10F
WEST JORDAN    CLOUDY    34  25  69 S20G25    30.09F WCI  23

$$

UTZ011>015-024>027-042000-

CENTRAL/NORTHEAST UTAH

CITY           SKY/WX    TMP DP  RH WIND       PRES   REMARKS
PROVO AIRPORT  MOSUNNY   35  19  52 E5        30.14F WCI  31
MOAB/CANYONLAN SUNNY     37  16  42 CALM      30.18F
DELTA          SUNNY     36  18  48 SE3       30.13F
PRICE          SUNNY     32  15  49 VRB3      30.16F
RICHFIELD      SUNNY     36  19  51 N2        30.15
ROOSEVELT      CLOUDY    32  16  51 E3        30.16F
VERNAL         SUNNY     30  16  56 VRB3      30.13F

$$

UTZ013>016-019>022-027-042000-

SOUTHERN UTAH

CITY           SKY/WX    TMP DP  RH WIND       PRES   REMARKS
BRYCE CANYON   NOT AVBL
CEDAR CITY     SUNNY     43  15  32 SW7       30.12F
MILFORD        SUNNY     41  16  36 S20       30.12F
ST GEORGE      PTCLDY    43  18  36 CALM      30.21F
HANKSVILLE     SUNNY     37  16  41 CALM      30.22F
KANAB          SUNNY     45  14  29 S7        30.21
BLANDING       SUNNY     38  13  35 S8        30.23F WCI  33

$$

REGIONAL REPORTS     COLORADO/ARIZONA

CITY           SKY/WX    TMP DP  RH WIND       PRES   REMARKS
CRAIG, CO      CLOUDY    31  12  45 E8        30.09F WCI  23
GRAND JUNCTION SUNNY     34  16  47 VRB3      30.20F
RIFLE, CO      SUNNY     31  14  49 CALM      30.18F
MONTROSE, CO   SUNNY     33  13  43 N3        30.19F
CORTEZ, CO     SUNNY     35  19  52 SW8       30.17F WCI  29
COLORADO CITY    N/A     46  18  31 S5        30.20F
PAGE, AZ       SUNNY     40  12  32 VRB3      30.19F
GRAND CANYON   SUNNY     50   7  17 SW3       30.17F
KINGMAN, AZ    SUNNY     55   8  15 N8        30.14F
FLAGSTAFF, AZ  SUNNY     44  -4  13 E10G20    30.17F

$$

REGIONAL REPORTS    NEVADA/IDAHO/WYOMING

CITY           SKY/WX    TMP DP  RH WIND       PRES   REMARKS
LAS VEGAS, NV  MOSUNNY   55  13  18 N5        30.16F
ELY, NY        SUNNY     45   8  22 CALM      30.11F
ELKO, NV       PTSUNNY   33  19  56 CALM      30.09F
POCATELLO, ID  CLOUDY    38  22  52 S30G38    29.91F WCI  26
BURLEY, ID     CLOUDY    43  20  39 S28G37    29.92F
FORT BRIDGER,    N/A     38  15  38 W22G31    30.00F WCI  27
EVANSTON, WY   CLOUDY    33  13  43 SW17      30.01F WCI  22
ROCK SPRINGS,  CLOUDY    31  13  47 W26G32    29.96F WCI  17
KEMMERER, WY     N/A     32  18  55 W18G28    29.97  WCI  20

$$




USA.gov is the U.S. government's official web portal to all federal, state and local government web resources and services.